User: anonymous   Login
Location: ?????
(31.8092°N, 35.2590°E)
Time: 19:37:12
(UTC+00:00)
Language:

Cosmos 1464 Rocket - Orbit

View from above orbital plane
View from above orbital plane
View from above satellite
View from above satellite

Ground track
Ground track

The orbit data is extracted from the following two-line orbital elements,

1 14085U 83048B   21267.80092648  .00000060  00000-0  45722-4 0  9996
2 14085  82.9484  11.3761 0034617  62.6794 297.7880 13.76325018925046
Epoch (UTC): 24 September 2021 19:13:20
Eccentricity: 0.0034617
inclination: 82.9484°
perigee height: 951 km
apogee height: 1002 km
right ascension of ascending node: 11.3761°
argument of perigee: 62.6794°
revolutions per day: 13.76325018
mean anomaly at epoch: 297.7880°
orbit number at epoch: 92504

The dashed part of the orbit path shows where the satellite is in the earth's shadow,  

DLR